CZ-6A DEB, 61305

Orbit data source: Space-Track

CZ-6A DEB, 61305 is space debris in LEO originally from a launch on Tue, 06 Aug 2024 UTC launched from the Taiyaun Space Center, China (TSC). Debris objects in space refer to the collection of defunct objects orbiting the Earth. Examples of debris include non-operational satellites, rocket bodies, and fragments generated from explosions, collisions, or faulty payload assembly.

Loading next visibility...
Identifier
61305, 2024-140TS
Orbit
LEO
Country
Flag of CNCN / PRC
Related business
Manufacturer
SAST
Mission
Spacecraft
Bus & Motor
Unknown
Mass
Unknown
Launch date (UTC)
2024-08-06 (2 years ago)
Launch vehicle
Unknown
Launch site
Taiyaun Space Center, China (TSC)
Object type
Payload
Rocket body
Debris
Shape & HBR
Unknown shape, 0.1 m
Radar Cross Section
Medium (>0.1 m² and <1 m²)

Expand to show TLE details & history
Last TLE update: 18 hours ago

TLE from 18 hours ago
0 CZ-6A DEB
1 61305U 24140TS  26171.22983971  .00004228  00000-0  77004-3 0  9991
2 61305  88.9834 267.9124 0089404 225.5440 133.8438 14.63323341 96370
Epoch: 2026-06-20T05:30Z
TLE epoch observation values (Epoch: 2026-06-20T05:30:58.150Z)
Latitude
-0.00011°
Longitude
-83.27735°
Altitude
729.605 km
Speed
7.467 km/s
True Right ascension
17h 51m 38s
True Declination
0° 00' 00"
Sunlit
Object was in full shadow at epoch
Visualization orbit readout
Latitude
Unknown
Longitude
Unknown
Altitude
Unknown
Speed
Unknown
Apparent Right ascension
Unknown
Apparent Declination
Unknown
Sunlit
N/A
Visualization observer readout
Local Sidereal Time
10:18:58
Azimuth
Unknown
Elevation
Unknown
Doppler factor
Unknown
Orbital elements
Apogee altitude
742.449 km
Perigee altitude
616.256 km
Semi-major axis
7,057.49 km
Eccentricity
0.00894
Inclination
88.9834°
RAAN
267.9124°
Arg. of periapsis
225.544°
True anomaly
134.577°
Mean anomaly
133.8438°
Eccentric anomaly
134.21097°
Mean motion
3.66073 °/min
Orbital period
98.34 mins
BSTAR
0.00077004
Loading maneuver chart data...
Computing Atmospheric mass density...
Loading historical data...
Loading historical data...
Loading historical data...
Loading historical data...
Loading historical data...
Loading historical data...
Loading historical data...

Documentation

Showing up to 5 results
|